User: anonymous   Login
Location: Unspecified
(52.1971°N, 0.0000°E)
Time: 08:22:38
(UTC+00:00)
Language:

Max Valier Satellite - Orbit

View from above orbital plane
View from above orbital plane
View from above satellite
View from above satellite

Ground track
Ground track

The orbit data is extracted from the following two-line orbital elements,

1 42778U 17036P   19341.89725250 +.00000705 +00000-0 +33564-4 0  9998
2 42778 097.3335 035.5813 0011694 347.2307 012.8632 15.22288378136437
Epoch (UTC): 07 December 2019 21:32:02
Eccentricity: 0.0011694
inclination: 97.3335°
perigee height: 491 km
apogee height: 507 km
right ascension of ascending node: 35.5813°
argument of perigee: 347.2307°
revolutions per day: 15.22288378
mean anomaly at epoch: 12.8632°
orbit number at epoch: 13643

The dashed part of the orbit path shows where the satellite is in the earth's shadow,  

DLR